Regional Weather Roundup
Issued by NWS

Home | Current Version | Previous Version | Graphics & Text | Print | Product List | Glossary On
Versions: 1 2 3 4 5 6 7 8 9 10 11 12 13 14 15 16 17 18 19 20 21 22 23 24 25 26 27 28 29 30 31 32 33 34 35 36 37 38 39 40 41 42 43 44 45 46 47 48 49 50
000
ASUS43 KTOP 281459
RWRKS

WEATHER ROUNDUP FOR KANSAS
NATIONAL WEATHER SERVICE GOODLAND KS
1000 AM CDT THU JUL 28 2016

NOTE:  "FAIR" INDICATES FEW OR NO CLOUDS BELOW 12,000 FEET WITH NO
SIGNIFICANT WEATHER AND/OR OBSTRUCTIONS TO VISIBILITY.

KSZ001>006-013>018-027>032-041>047-281600-
NORTHWEST KANSAS

CITY           SKY/WX    TMP DP  RH WIND       PRES   REMARKS
GOODLAND       SUNNY     76  59  55 S12       30.06F
HAYS           MOSUNNY   79  61  53 E3        30.03F
HILL CITY      SUNNY     76  68  76 E8        30.05F
RUSSELL        MOSUNNY   77  67  71 N6        30.03F
$$

KSZ061>065-074>080-084>089-281600-
SOUTHWEST KANSAS

CITY           SKY/WX    TMP DP  RH WIND       PRES   REMARKS
DODGE CITY     SUNNY     77  65  66 E5        30.04F
ELKHART          N/A     73  60  63 SE9         N/A
GARDEN CITY    CLOUDY    74  61  63 S3        30.06F
GREAT BEND     CLOUDY    73  61  64 N12       30.02F
LIBERAL        CLOUDY    77  63  61 E3        30.12S
$$

KSZ066>073-081>083-090>101-281600-
SOUTHEAST KANSAS

CITY           SKY/WX    TMP DP  RH WIND       PRES   REMARKS
CHANUTE        TSTM      73  66  78 N10G32    30.00R VSB 1/4
COFFEYVILLE    SUNNY     86  75  69 NW7       29.96F HX  95
HUTCHINSON     CLOUDY    81  71  71 NE9       30.01R
NEWTON         MOSUNNY   80  72  76 NE8       30.01S
PARSONS        SUNNY     86  76  71 NW6       29.98F HX  96
WICHITA INTL   CLOUDY    85  69  58 NE10      29.97F
WICHITA JABRA  PTSUNNY   86  74  67 N7        29.98F
WINFIELD       MOSUNNY   87  72  60 E5        29.97F
$$

KSZ007>012-019>026-033>040-048>060-102>105-281600-
NORTHEAST KANSAS

CITY           SKY/WX    TMP DP  RH WIND       PRES   REMARKS
CONCORDIA      SUNNY     77  65  66 VRB3      30.04S
EMPORIA        MOSUNNY   83  71  67 N8        29.99F
LAWRENCE       PTSUNNY   82  71  69 NE7       29.98F
MANHATTAN      MOSUNNY   81  71  71 VRB3      30.00F
OLATHE IND     PTSUNNY   79  72  79 N9        29.99S
OLATHE EXE     PTSUNNY   80  71  74 NW6       29.98F
SALINA         PTSUNNY   82  70  66 N7        30.02S
TOPEKA BILLARD   N/A     82  71  69 NE8       29.99F
TOPEKA FORBES  PTSUNNY   82  72  71 N8        29.99F
$$



USA.gov is the U.S. government's official web portal to all federal, state and local government web resources and services.